This is the latest recevied weather packets stored in our database for station/object WX7FGZ-5. If no packets are shown the sender has not sent any weather packets the latest 10 day(s).
| Time | Temp. | Humidity | Pressure | Rain* | Wind** | Luminosity | Snow |
|---|---|---|---|---|---|---|---|
| 1777405320 | 14.44° C | 22% | 1023.1 hPa | 0 mm | - | 1116 W/m² | - |
| 1777404721 | 13.89° C | 20% | 1023.1 hPa | 0 mm | - | 1095 W/m² | - |
| 1777404462 | 13.89° C | 20% | 1023.2 hPa | 0 mm | - | 1069 W/m² | - |
| 1777404420 | 13.89° C | 20% | 1023.2 hPa | 0 mm | - | 1069 W/m² | - |
| 1777404120 | 13.89° C | 21% | 1023.3 hPa | 0 mm | - | 1044 W/m² | - |
| 1777403822 | 13.33° C | 21% | 1023.3 hPa | 0 mm | - | 1065 W/m² | - |
| 1777403520 | 13.33° C | 22% | 1023.2 hPa | 0 mm | - | 1127 W/m² | - |
| 1777403088 | 13.33° C | 18% | 1023.4 hPa | 0 mm | - | 796 W/m² | - |
| 1777401889 | 13.33° C | 18% | 1023.3 hPa | 0 mm | - | 997 W/m² | - |
| 1777401288 | 13.33° C | 19% | 1023.4 hPa | 0 mm | - | 990 W/m² | - |
| 1777400688 | 13.33° C | 20% | 1023.5 hPa | 0 mm | - | 1053 W/m² | - |
| 1777400388 | 12.78° C | 21% | 1023.6 hPa | 0 mm | - | 694 W/m² | - |
| 1777400088 | 12.22° C | 21% | 1023.5 hPa | 0 mm | - | 958 W/m² | - |
| 1777399740 | 12.78° C | 20% | 1023.5 hPa | 0 mm | - | 958 W/m² | - |
| 1777399690 | 12.78° C | 20% | 1023.5 hPa | 0 mm | - | 958 W/m² | - |
| 1777399090 | 12.22° C | 21% | 1023.9 hPa | 0 mm | - | 881 W/m² | - |
| 1777398790 | 12.78° C | 20% | 1023.9 hPa | 0 mm | - | 895 W/m² | - |
| 1777397890 | 11.67° C | 24% | 1023.9 hPa | 0 mm | - | 932 W/m² | - |
| 1777396993 | 10.56° C | 25% | 1024 hPa | 0 mm | - | 793 W/m² | - |
| 1777396689 | 10.56° C | 27% | 1024 hPa | 0 mm | - | 867 W/m² | - |
| 1777396139 | 10.56° C | 26% | 1023.9 hPa | 0 mm | - | 889 W/m² | - |
| 1777396090 | 10.56° C | 26% | 1023.9 hPa | 0 mm | - | 889 W/m² | - |
| 1777395789 | 10.56° C | 26% | 1024.1 hPa | 0 mm | - | 872 W/m² | - |
| 1777395227 | 10.56° C | 27% | 1023.9 hPa | 0 mm | - | 803 W/m² | - |
| 1777395193 | 10.56° C | 27% | 1023.9 hPa | 0 mm | - | 803 W/m² | - |
* Rain latest hour (hover to see other rain measurements)
** Current wind speed in m/s (hover to see current wind gust speed)